Location: *
(49.9853°N, 3.5569°E)
Time: 12:40:46
(UTC+00:00)

Cosmos 1821 Rocket - Pass Details

Date: 22 September 2019
Orbit: 944 x 1005 km, 82.9° (Epoch: 20 October)

Event Time Altitude Azimuth Distance (km) Brightness Sun altitude
Rises 20:35:48 0° 349° (NNW) 3,659 7.7 -26.6°
Reaches altitude 10° 20:38:20 10° 348° (NNW) 2,701 6.9 -26.9°
Maximum altitude 20:44:29 76° 264° (W) 982 4.0 -27.7°
Enters shadow 20:45:40 59° 198° (SSW) 1,094 4.0 -27.8°
